Starlink 36158

operational
NORAD ID: 67080 Int'l Des: 2025-298 Owner: SPXS Country: US Constellation: starlink
LEOCIRCULAR

Starlink 36158について

説明を読み込み中...

リアルタイム位置

3D地球を読み込み中...

次回通過

高度履歴

Altitude vs Time

uPlot chart will show altitude changes over time

軌道要素

1 67080C 25298F 25349.42340278 -.00854270 00000+0 -13024-2 0 3498
2 67080 70.0022 243.0104 0005620 274.4600 189.9274 16.05047958 10
Epoch: Dec 15, 2025 • Age: 49 hours

現在のステータス

高度 273.6 km
速度 7.74 km/s
衛星直下点 -18.45°S, 43.04°W
打ち上げ日 Dec 14, 2025
運用期間 2 days
タイプ internet

技術仕様

分類 Payload
質量 575.00 kg
乾燥質量 530.00 kg
総質量 575.00 kg
長さ 0.30 m
直径 4.10 m
スパン 29.00 m
形状 Box + pan
製造者 SPXS
バスタイプ Starlink V2MO
フェーズステータス In Orbit
所有者/国 SPXS/US

大規模コンステレーション

Loading constellations...